This is the latest recevied weather packets stored in our database for station/object OK2JCZ-6. If no packets are shown the sender has not sent any weather packets the latest 10 day(s).
| Time | Temp. | Humidity | Pressure | Rain* | Wind** | Luminosity | Snow |
|---|---|---|---|---|---|---|---|
| 1777058074 | 8.89° C | 47% | 1015.1 hPa | 0 mm | - | - | - |
| 1777057774 | 8.89° C | 47% | 1015.1 hPa | 0 mm | - | - | - |
| 1777057474 | 9.44° C | 46% | 1015.1 hPa | 0 mm | - | - | - |
| 1777057174 | 9.44° C | 45% | 1015.1 hPa | 0 mm | - | - | - |
| 1777056874 | 9.44° C | 46% | 1015 hPa | 0 mm | - | - | - |
| 1777056574 | 9.44° C | 46% | 1015 hPa | 0 mm | - | - | - |
| 1777056274 | 9.44° C | 44% | 1015 hPa | 0 mm | - | - | - |
| 1777055674 | 10° C | 43% | 1014.8 hPa | 0 mm | - | - | - |
| 1777055374 | 10° C | 42% | 1014.7 hPa | 0 mm | - | - | - |
| 1777055074 | 10.56° C | 41% | 1014.7 hPa | 0 mm | - | - | - |
| 1777054774 | 10.56° C | 41% | 1014.6 hPa | 0 mm | - | - | - |
| 1777054474 | 11.11° C | 41% | 1014.6 hPa | 0 mm | - | - | - |
| 1777054174 | 11.11° C | 41% | 1014.5 hPa | 0 mm | - | - | - |
| 1777052974 | 12.22° C | 40% | 1014.4 hPa | 0 mm | - | - | - |
| 1777052674 | 12.78° C | 40% | 1014.4 hPa | 0 mm | - | - | - |
| 1777052076 | 13.33° C | 38% | 1014.2 hPa | 0 mm | - | - | - |
| 1777051174 | 13.89° C | 36% | 1014.2 hPa | 0 mm | - | - | - |
| 1777050274 | 14.44° C | 35% | 1014 hPa | 0 mm | - | - | - |
| 1777049674 | 15° C | 34% | 1014 hPa | 0 mm | - | - | - |
| 1777049374 | 15° C | 35% | 1014 hPa | 0 mm | - | - | - |
| 1777048774 | 15° C | 34% | 1014 hPa | 0 mm | - | - | - |
| 1777048174 | 15.56° C | 34% | 1014.1 hPa | 0 mm | - | - | - |
| 1777047874 | 15.56° C | 34% | 1014.1 hPa | 0 mm | - | - | - |
| 1777047277 | 15.56° C | 32% | 1014.2 hPa | 0 mm | - | - | - |
| 1777046974 | 15.56° C | 33% | 1014.2 hPa | 0 mm | - | - | - |
* Rain latest hour (hover to see other rain measurements)
** Current wind speed in m/s (hover to see current wind gust speed)